Location: Unspecified
(43.4354°N, 0.0000°E)
Time: 15:02:45
(UTC+00:00)

Courier 1B - Pass Details

Date: 25 June 2019
Orbit: 962 x 1209 km, 28.3° (Epoch: 24 August)

Event Time Altitude Azimuth Distance (km) Brightness Sun altitude
Rises 19:32:37 0° 247° (WSW) 3,831 11.2 1.0°
Reaches altitude 10° 19:35:52 10° 234° (SW) 2,919 10.3 0.5°
Maximum altitude 19:41:19 24° 184° (S) 2,154 9.1 -0.3°
Drops below altitude 10° 19:47:00 10° 135° (SE) 3,054 9.5 -1.2°
Enters shadow 19:49:50 - 124° (ESE) 3,852 9.9 -1.6°
Sets 19:50:30 0° 122° (ESE) 4,049 - -1.7°
